Voltar ao catálogo

NETSAT-2

AtivoCiênciaPO
NORAD 46507·PAYLOAD·🇩🇪 Germany

Lançado Sep 28, 2020 de Plesetsk Cosmodrome

Loading…

Próximas Passagens (próximas 24 horas)

TLE

AtualizadoSource: Space-Track

Época: Sep 14, 2026, 12:16 UTC

1 46507U 20068X   26257.51126758  .00017334  00000-0  31671-3 0  9994
2 46507  97.8610 273.4050 0004762  55.2499 304.9199 15.49460456329552

Acompanhe NETSAT-2 em tempo real com AllMySat

Download on the App Store